Regional Weather Roundup
Issued by NWS

Home | Current Version | Previous Version | Text Only | Print | Product List | Glossary On
Versions: 1 2 3 4 5 6 7 8 9 10 11 12 13 14 15 16 17 18 19 20 21 22 23 24 25 26 27 28 29 30 31 32 33 34 35 36 37 38 39 40 41 42 43 44 45 46 47 48 49 50
000
ASUS43 KMKX 010300
RWRWI

WISCONSIN REGIONAL WEATHER ROUNDUP
NATIONAL WEATHER SERVICE MILWAUKEE/SULLIVAN WI
1000 PM CDT MON AUG 31 2015

NOTE: "FAIR" INDICATES FEW OR NO CLOUDS BELOW 12,000 FEET WITH NO
SIGNIFICANT WEATHER AND/OR OBSTRUCTIONS TO VISIBILITY.

WIZ001-002-006>008-014>016-023>028-010400-
NORTHWEST WISCONSIN

CITY           SKY/WX    TMP DP  RH WIND       PRES   REMARKS
SUPERIOR ARPT  MOCLDY    73  70  91 SW5       29.87R
ASHLAND        CLEAR     73  71  93 S6        29.90S
HAYWARD        PTCLDY    72  69  90 S6        29.93S
SIREN          MOCLDY    73  70  90 CALM      29.91S
CUMBERLAND     MOCLDY    70  68  94 S5        29.94R
RICE LAKE      PTCLDY    72  69  89 SE6       29.95R
CHETEK         PTCLDY   N/A N/A N/A SE3       29.94S
LADYSMITH      MOCLDY    73  69  90 S5        29.98R
EAU CLAIRE     NOT AVBL
MENOMONIE      CLEAR     72  70  94 SE5       29.94R FOG
NEW RICHMOND   PTCLDY    74  71  90 S6        29.93R
OSCEOLA        CLOUDY    73  73 100 CALM      29.94S
$$

WIZ003>005-009-010-017-018-010400-
NORTH CENTRAL WISCONSIN

CITY           SKY/WX    TMP DP  RH WIND       PRES   REMARKS
MANITOWISH WTR CLEAR     66  66 100 S6        29.98S
ARBOR VITAE    CLEAR     69  67  92 S6        29.99S
WOODRUFF       CLEAR     69  67  92 S6        29.99S
RHINELANDER    CLEAR     68  65  90 SW3       30.01S
EAGLE RIVER    CLEAR     65  65  99 CALM      29.99S
LAND O LAKES   CLEAR     68  64  89 S5        30.00S
PHILLIPS       CLEAR     69  68  96 S7        29.98R
TOMAHAWK         N/A     64  63  95 CALM      30.00S FOG
MEDFORD        CLEAR     66  66  99 S6        30.00R FOG
MERRILL        CLEAR     67  67 100 CALM      30.00S FOG
$$

WIZ029-030-035-036-043>047-010400-
CENTRAL WISCONSIN

CITY           SKY/WX    TMP DP  RH WIND       PRES   REMARKS
WAUSAU         CLEAR     70  67  90 S5        29.98S
MOSINEE        NOT AVBL
MARSHFIELD     CLEAR     68  65  90 S6        30.00R FOG
STEVENS POINT  CLEAR     66  64  95 CALM      30.01R
WAUPACA        FOG       69  69  99 CALM      30.00S VSB 1
WAUTOMA        FOG       66  66 100 CALM      30.01S VSB 3/4
WISC RAPIDS    LGT RAIN  71  66  84 S5        30.01R
CAMP DOUGLAS   NOT AVBL
$$

WIZ011>013-019>022-031-037>040-048>050-010400-
NORTHEAST WISCONSIN

CITY           SKY/WX    TMP DP  RH WIND       PRES   REMARKS
ANTIGO         CLEAR     64  64  99 S6        30.02S FOG
SHAWANO        CLEAR     72  69  90 S3        29.99S
OCONTO         CLEAR     66  66 100 CALM      29.99S
STURGEON BAY   CLEAR     64  61  88 S8        30.02S
GREEN BAY      CLEAR     69  67  93 S5        30.00R FOG
MANITOWOC      NOT AVBL
APPLETON       PTCLDY    70  68  94 VRB5      30.00R
CLINTONVILLE   CLEAR     64  63  94 CALM      29.99S FOG
OSHKOSH        CLEAR     66  65  96 S5        30.01R FOG
$$

WIZ032>034-041-042-053>061-010400-
SOUTHWEST WISCONSIN

CITY           SKY/WX    TMP DP  RH WIND       PRES   REMARKS
LA CROSSE      CLEAR     74  70  87 S3        29.96R
SPARTA         CLEAR     69  66  91 CALM      29.98S
VIROQUA          N/A     73  72  98 SE7       30.00S
BOSCOBEL       CLEAR     72  69  90 CALM      29.98S
PRAIRIE DU CHI CLEAR     74  69  85 CALM      29.97S
PLATTEVILLE    CLEAR     73  71  91 SE6       30.01R
$$

WIZ056-057-062-063-064-067-068-010400-
SOUTH CENTRAL WISCONSIN

CITY           SKY/WX    TMP DP  RH WIND       PRES   REMARKS
REEDSBURG      CLEAR     71  69  90 CALM      29.99S
BARABOO/DELLS  CLEAR     69  65  89 S5        30.00S
LONE ROCK      NOT AVBL
MINERAL POINT  CLEAR     73  70  88 SE5       30.02R
MADISON        CLEAR     70  67  90 CALM      30.01S
MIDDLETON      CLEAR     66  66  98 CALM      30.02S
WATERTOWN      CLEAR     69  69 100 CALM      30.02R
MONROE         CLEAR     73  68  83 S7        30.03R
JANESVILLE     CLEAR     72  70  94 CALM      30.02R
$$

WIZ051-052-058>065-066-070>072-010400-
SOUTHEAST WISCONSIN

CITY           SKY/WX    TMP DP  RH WIND       PRES   REMARKS
MILWAUKEE      PTCLDY    70  65  84 S6        30.03S
WAUKESHA       CLEAR     68  66  94 S5        30.04R
MILWAUKEE/TIMM CLEAR     70  63  78 S3        30.04R
RACINE         CLEAR     69  65  86 S6        30.05S
BURLINGTON     FOG       64  64  98 CALM      30.04R VSB 1
KENOSHA        CLEAR     68  64  87 SE3       30.04S
FOND DU LAC    PTCLDY    67  66  97 S3        30.02R FOG
SHEBOYGAN      CLEAR     63  62  97 S3        30.03R FOG
WEST BEND      CLEAR     66  64  94 CALM      30.03S
JUNEAU         CLEAR     69  67  92 CALM      30.03S
$$

LSZ147-162-010400-
LAKE SUPERIOR

STATION/POSITION TIME  TEMP    WIND        PRES    WAVE
                       AIR SEA DIR/SP/G            HT/PER
                 (UTC) (F)     (DEG/KT/KT) (MB)    (FT/S)
W MID LAKE BUOY  0150   61 55  190/ 10/ 10 1011.2R   1
DEVILS ISLAND    0200   75     190/  8/ 11 1011.0R
PORT WING        0200   76     180/  8/ 12 1011.2S
SAXON HARBOR     0200   75     190/  4/  9 1011.9R
$$

LMZ867-665-643>646-010400-
LAKE MICHIGAN

STATION/POSITION TIME  TEMP    WIND        PRES    WAVE
                       AIR SEA DIR/SP/G            HT/PER
                 (UTC) (F)     (DEG/KT/KT) (MB)    (FT/S)
CHAMBERS ISLAND  0200   69     160/  3/  6 1015.6R
S GREEN BAY BUOY 0100   67 64  180/  6/  8 1016.5R
N MID LAKE BUOY  0150   66 65  210/ 16/ 17 1015.3R   3/ 4
NORTHPORT PIER   0200   63     160/  4/  8 1015.6R
KEWAUNEE LAKESHO 0200   50     170/  3/  4 1015.3R
SHEBOYGAN LAKESH 0200   63     180/ 13/ 14 1016.9R
PORT WASHINGTON  0200   59      CALM  /  2 1017.3S
ATWATER BUOY     0200   57 52  180/  6/  6 1018.0R
MILWAUKEE LAKESH 0210   62     210/  1/  2   N/A
S MID LAKE BUOY  0150   70 70  130/  6/  6   N/A
KENOSHA   LAKESH 0200   68     180/  7/  8 1016.6R
$$

TC  - TEMPERATURE IN CELSIUS
VSB - VISIBILITY IN STATUTE MILES
WCI - WIND CHILL INDEX
HX  - HEAT INDEX




USA.gov is the U.S. government's official web portal to all federal, state and local government web resources and services.